Change the Weather History Date:

Friday, October 5, 2012

  Actual Average Record
Temperature  
Mean Temperature 76 °F -  
Max Temperature 81 °F 76 °F 81 °F (2012)
Min Temperature 72 °F 71 °F 71 °F (1997)
Cooling Degree Days 12    
Growing Degree Days 26 (Base 50)    
Moisture  
Dew Point 70 °F    
Average Humidity 81    
Maximum Humidity 88    
Minimum Humidity 62    
Precipitation  
Precipitation 0.00 in - - ()
Sea Level Pressure  
Sea Level Pressure 29.95 in    
Wind  
Wind Speed 11 mph ()    
Max Wind Speed 15 mph    
Max Gust Speed -    
Visibility 6.2 miles    
Events      
Averages and records for this station are not official NWS values.
T = Trace of Precipitation, MM = Missing Value Source: Averaged Metar Reports

Daily Weather History Graph

Daily Weather History Graph

Search for Another Location

Airport or City:

Trip Planner

Search our weather history database for the weather conditions in past years. The results will help you decide how hot, cold, wet, or windy it might be!

Date:

Astronomy

Oct. 05, 2012 Rise Set
Actual Time 5:38 AM CXT 5:52 PM CXT
Civil Twilight 5:17 AM CXT 6:13 PM CXT
Nautical Twilight 4:53 AM CXT 6:38 PM CXT
Astronomical Twilight 4:28 AM CXT 7:03 PM CXT
Moon 10:03 PM CXT (10/5) 9:06 AM CXT (10/5)
Length of Visible Light 12h 56m
Length of Day
12h 13m
Waning Gibbous, 78% of the Moon is Illuminated
Oct 5
Waning Gibbous
Oct 8
Last Quarter
Oct 15
New
Oct 22
First Quarter
Oct 30
Full

Hourly Weather History & Observations

Time (CXT) Temp. Heat Index Dew Point Humidity Pressure Visibility Wind Dir Wind Speed Gust Speed Precip Events Conditions
12:00 AM 74 °F - 70 °F 83% 29.91 in - SE 12.7 mph - -   Overcast
12:00 AM 73.4 °F - 69.8 °F 88% 29.95 in 6.2 mi SE 12.7 mph - N/A   Mostly Cloudy
1:00 AM 73 °F - 70 °F 86% 29.91 in - SE 11.5 mph - -  
1:00 AM 73.4 °F - 69.8 °F 88% 29.95 in 6.2 mi SE 11.5 mph - N/A   Mostly Cloudy
2:00 AM 73.4 °F - 69.8 °F 88% 29.92 in 6.2 mi SE 10.4 mph - N/A   Mostly Cloudy
3:00 AM 73 °F - 69 °F 84% 29.90 in - SE 11.5 mph - -   Overcast
3:00 AM 73.4 °F - 69.8 °F 88% 29.92 in 6.2 mi SE 11.5 mph - N/A   Overcast
4:00 AM 73 °F - 69 °F 84% 29.91 in - SE 11.5 mph - -  
4:00 AM 73.4 °F - 69.8 °F 88% 29.95 in 6.2 mi SE 11.5 mph - N/A   Mostly Cloudy
5:00 AM 73.4 °F - 68.0 °F 83% 29.95 in 6.2 mi SE 11.5 mph - N/A   Mostly Cloudy
6:00 AM 74 °F - 69 °F 81% 29.94 in - SE 11.5 mph - -   Overcast
6:00 AM 73.4 °F - 69.8 °F 88% 29.98 in 6.2 mi SE 11.5 mph - N/A   Overcast
7:00 AM 75 °F - 69 °F 77% 29.95 in - ESE 13.8 mph - -  
7:00 AM 75.2 °F - 69.8 °F 83% 29.98 in 6.2 mi ESE 13.8 mph - N/A   Overcast
8:00 AM 77.0 °F - 68.0 °F 74% 30.01 in 6.2 mi ESE 13.8 mph - N/A   Mostly Cloudy
9:00 AM 77 °F - 69 °F 69% 29.98 in - ESE 13.8 mph - -  
9:00 AM 77.0 °F - 68.0 °F 74% 30.01 in 6.2 mi ESE 13.8 mph - N/A   Mostly Cloudy
10:00 AM 77 °F - 70 °F 72% 29.98 in - ESE 15.0 mph - -  
10:00 AM 77.0 °F - 69.8 °F 78% 30.01 in 6.2 mi ESE 15.0 mph - N/A   Overcast
11:00 AM 77.0 °F - 69.8 °F 78% 30.01 in 6.2 mi ESE 15.0 mph - N/A   Mostly Cloudy
11:32 AM 80.6 °F 83.9 °F 69.8 °F 70% 29.98 in 6.2 mi ESE 15.0 mph - N/A   Scattered Clouds
12:00 PM 80 °F - 69 °F 62% 29.94 in - ESE 12.7 mph - -  
12:00 PM 80.6 °F 83.9 °F 69.8 °F 70% 29.98 in 6.2 mi ESE 12.7 mph - N/A   Mostly Cloudy
1:00 PM 80 °F - 69 °F 63% 29.91 in - ESE 12.7 mph - -  
1:00 PM 80.6 °F 83.9 °F 69.8 °F 70% 29.95 in 6.2 mi ESE 12.7 mph - N/A   Scattered Clouds
2:00 PM 77.0 °F - 69.8 °F 78% 29.92 in 6.2 mi ESE 12.7 mph - N/A   Mostly Cloudy
3:00 PM 77 °F - 69 °F 71% 29.89 in - ESE 12.7 mph - -   Overcast
3:00 PM 77.0 °F - 69.8 °F 78% 29.92 in 6.2 mi ESE 12.7 mph - N/A   Overcast
4:00 PM 76 °F - 70 °F 76% 29.88 in - SE 11.5 mph - -  
4:00 PM 77.0 °F - 69.8 °F 78% 29.92 in 6.2 mi SE 11.5 mph - N/A   Mostly Cloudy
5:00 PM 77.0 °F - 69.8 °F 78% 29.92 in 6.2 mi SE 9.2 mph - N/A   Mostly Cloudy
5:30 PM 75.2 °F - 69.8 °F 83% 29.92 in 6.2 mi SE 9.2 mph - N/A   Mostly Cloudy
5:35 PM 75.2 °F - 69.8 °F 83% 29.95 in 6.2 mi SE 10.4 mph - N/A   Mostly Cloudy
5:50 PM 75.2 °F - 69.8 °F 83% 29.95 in 6.2 mi SE 10.4 mph - N/A   Mostly Cloudy
6:00 PM 75 °F - 70 °F 80% 29.91 in - SE 10.4 mph - -   Overcast
6:00 PM 75.2 °F - 69.8 °F 83% 29.95 in 6.2 mi SE 10.4 mph - N/A   Mostly Cloudy
6:21 PM 75.2 °F - 69.8 °F 83% 29.95 in 6.2 mi SE 8.1 mph - N/A   Mostly Cloudy
6:23 PM 75.2 °F - 69.8 °F 83% 29.95 in 6.2 mi SE 8.1 mph - N/A   Mostly Cloudy
6:51 PM 73.4 °F - 69.8 °F 88% 29.95 in 6.2 mi SE 10.4 mph - N/A   Mostly Cloudy
7:00 PM 74 °F - 70 °F 83% 29.93 in - SE 9.2 mph - -  
7:00 PM 73.4 °F - 69.8 °F 88% 29.95 in 6.2 mi SE 9.2 mph - N/A   Scattered Clouds
7:23 PM 73.4 °F - 69.8 °F 88% 29.98 in 6.2 mi SE 9.2 mph - N/A   Mostly Cloudy
8:00 PM 75.2 °F - 69.8 °F 83% 29.98 in 6.2 mi SE 10.4 mph - N/A   Overcast
9:00 PM 74 °F - 70 °F 84% 29.96 in - SE 10.4 mph - -   Overcast
9:00 PM 75.2 °F - 69.8 °F 83% 29.98 in 6.2 mi SE 10.4 mph - N/A   Mostly Cloudy
10:00 PM 74 °F - 70 °F 85% 29.97 in - SE 11.5 mph - -  
10:00 PM 73.4 °F - 69.8 °F 88% 30.01 in 6.2 mi SE 11.5 mph - N/A   Mostly Cloudy
10:03 PM 73.4 °F - 69.8 °F 88% 30.01 in 6.2 mi SE 10.4 mph - N/A   Mostly Cloudy
11:00 PM 73.4 °F - 69.8 °F 88% 30.01 in 6.2 mi SE 10.4 mph - N/A   Mostly Cloudy